Location: Fontevrault
(47.1823°N, 0.0493°E)
Time: 10:36:13
(UTC+00:00)

Cosmos 2333 Rocket - Pass Details

Date: 16 June 2021
Orbit: 841 x 861 km, 70.8° (Epoch: 27 July)

Event Time Altitude Azimuth Distance (km) Brightness Sun altitude
Exits shadow 22:50:56 10° 219° (SW) 2,521 4.3 -17.7°
Reaches altitude 10° 22:51:01 10° 219° (SW) 2,489 4.3 -17.7°
Maximum altitude 22:56:42 63° 301° (WNW) 952 2.6 -18.0°
Drops below altitude 10° 23:02:23 10° 22° (NNE) 2,494 5.4 -18.2°
Sets 23:04:53 0° 26° (NNE) 3,430 6.2 -18.3°
